AUA51U LIPE-LOWW

Flight info

Callsign AUA51U
Flight time 1h 1m
Altitude 32000
Route LUMAV M859 CHI DCT BARPI/N0445F330 DCT LAPNA
Aircraft A319/M-SDE3FGHIRWY/LB1

Departure

Time 2026-04-22 06:18
Airport Bologna Guglielmo Marconi Airport (LIPE)

Arrival

Time 2026-04-22 07:20
Airport Vienna International Airport (LOWW)
Time Latitude Longitude Altitude Speed Heading
2026-04-22 05:38 44.53333 11.28570 127 ft 0 kts 206°
2026-04-22 06:10 44.53336 11.28571 122 ft 2 kts 206°
2026-04-22 06:11 44.53355 11.28584 124 ft 4 kts 203°
2026-04-22 06:11 44.53380 11.28595 126 ft 4 kts 185°
2026-04-22 06:11 44.53406 11.28593 123 ft 4 kts 158°
2026-04-22 06:11 44.53415 11.28587 122 ft 0 kts 155°
2026-04-22 06:14 44.53415 11.28588 122 ft 1 kts 153°
2026-04-22 06:14 44.53416 11.28594 124 ft 1 kts 98°
2026-04-22 06:14 44.53423 11.28627 125 ft 6 kts 71°
2026-04-22 06:14 44.53405 11.28708 124 ft 12 kts 117°
2026-04-22 06:15 44.53361 11.28828 128 ft 15 kts 116°
2026-04-22 06:15 44.53313 11.28964 132 ft 16 kts 117°
2026-04-22 06:15 44.53264 11.29098 135 ft 16 kts 117°
2026-04-22 06:15 44.53210 11.29247 137 ft 19 kts 116°
2026-04-22 06:16 44.53150 11.29414 135 ft 20 kts 117°
2026-04-22 06:16 44.53088 11.29585 134 ft 20 kts 117°
2026-04-22 06:16 44.53033 11.29743 129 ft 14 kts 107°
2026-04-22 06:16 44.53066 11.29868 131 ft 14 kts 56°
2026-04-22 06:17 44.53129 11.29967 127 ft 9 kts 27°
2026-04-22 06:17 44.53164 11.29928 129 ft 8 kts 295°
2026-04-22 06:17 44.53218 11.29774 133 ft 46 kts 296°
2026-04-22 06:17 44.53487 11.29027 133 ft 122 kts 297°
2026-04-22 06:18 44.53957 11.27733 308 ft 161 kts 297°
2026-04-22 06:18 44.54462 11.26340 1053 ft 160 kts 297°
2026-04-22 06:18 44.54978 11.24917 1564 ft 174 kts 298°
2026-04-22 06:18 44.55559 11.23310 1963 ft 196 kts 298°
2026-04-22 06:19 44.56208 11.21499 2356 ft 219 kts 298°
2026-04-22 06:19 44.56931 11.19479 2774 ft 244 kts 298°
2026-04-22 06:19 44.57729 11.17246 3337 ft 267 kts 298°
2026-04-22 06:19 44.58606 11.14900 4231 ft 275 kts 302°
2026-04-22 06:20 44.59875 11.12902 5270 ft 276 kts 326°
2026-04-22 06:20 44.61602 11.11781 6287 ft 275 kts 351°
2026-04-22 06:20 44.63475 11.11775 7242 ft 273 kts 14°
2026-04-22 06:20 44.65215 11.12891 8231 ft 274 kts 38°
2026-04-22 06:21 44.66460 11.14871 9238 ft 279 kts 60°
2026-04-22 06:21 44.67274 11.17370 10155 ft 284 kts 65°
2026-04-22 06:21 44.68081 11.20007 10612 ft 305 kts 65°
2026-04-22 06:21 44.68950 11.22853 10973 ft 327 kts 65°
2026-04-22 06:22 44.69856 11.25833 11683 ft 336 kts 65°
2026-04-22 06:22 44.70781 11.28884 12451 ft 342 kts 65°
2026-04-22 06:22 44.71724 11.31990 13222 ft 348 kts 65°
2026-04-22 06:22 44.72684 11.35147 13968 ft 354 kts 64°
2026-04-22 06:23 44.73660 11.38349 14635 ft 359 kts 64°
2026-04-22 06:23 44.74687 11.41581 15287 ft 364 kts 62°
2026-04-22 06:23 44.75772 11.44826 15995 ft 368 kts 60°
2026-04-22 06:23 44.76885 11.48091 16691 ft 372 kts 59°
2026-04-22 06:24 44.79155 11.54758 17992 ft 383 kts 59°
2026-04-22 06:24 44.80303 11.58169 18658 ft 387 kts 59°
2026-04-22 06:24 44.81454 11.61609 19258 ft 390 kts 58°
2026-04-22 06:25 44.82679 11.65039 19787 ft 394 kts 55°
2026-04-22 06:25 44.83993 11.68456 20315 ft 399 kts 53°
2026-04-22 06:25 44.85364 11.71888 20838 ft 405 kts 52°
2026-04-22 06:25 44.86765 11.75362 21372 ft 410 kts 52°
2026-04-22 06:26 44.88180 11.78891 21906 ft 416 kts 52°
2026-04-22 06:26 44.89605 11.82481 22431 ft 422 kts 51°
2026-04-22 06:26 44.91035 11.86133 22946 ft 428 kts 51°
2026-04-22 06:26 44.92474 11.89847 23484 ft 434 kts 52°
2026-04-22 06:27 44.93901 11.93557 23954 ft 438 kts 52°
2026-04-22 06:27 44.95353 11.97354 24460 ft 440 kts 52°
2026-04-22 06:27 44.96807 12.01168 24999 ft 441 kts 52°
2026-04-22 06:27 44.98264 12.04985 25466 ft 443 kts 52°
2026-04-22 06:28 44.99738 12.08833 25899 ft 446 kts 51°
2026-04-22 06:28 45.01224 12.12697 26320 ft 449 kts 51°
2026-04-22 06:28 45.02721 12.16595 26737 ft 452 kts 51°
2026-04-22 06:28 45.04222 12.20514 27170 ft 455 kts 51°
2026-04-22 06:29 45.05732 12.24470 27592 ft 459 kts 51°
2026-04-22 06:29 45.07252 12.28462 28000 ft 461 kts 50°
2026-04-22 06:29 45.08819 12.32426 28402 ft 462 kts 49°
2026-04-22 06:29 45.10454 12.36350 28872 ft 463 kts 48°
2026-04-22 06:30 45.12134 12.40251 29281 ft 465 kts 47°
2026-04-22 06:30 45.13836 12.44159 29662 ft 468 kts 47°
2026-04-22 06:30 45.15549 12.48109 30027 ft 471 kts 47°
2026-04-22 06:30 45.17231 12.52036 30353 ft 475 kts 48°
2026-04-22 06:31 45.18939 12.56068 30653 ft 478 kts 49°
2026-04-22 06:31 45.20636 12.60123 30963 ft 480 kts 49°
2026-04-22 06:31 45.22336 12.64217 31262 ft 482 kts 50°
2026-04-22 06:31 45.24036 12.68318 31556 ft 484 kts 50°
2026-04-22 06:32 45.25722 12.72385 31889 ft 485 kts 50°
2026-04-22 06:32 45.27429 12.76500 32127 ft 481 kts 51°
2026-04-22 06:32 45.29091 12.80522 32157 ft 464 kts 51°
2026-04-22 06:33 45.32317 12.88316 32153 ft 454 kts 51°
2026-04-22 06:33 45.35531 12.96019 32154 ft 452 kts 51°
2026-04-22 06:34 45.38728 13.03724 32153 ft 452 kts 51°
2026-04-22 06:34 45.41911 13.11451 32182 ft 452 kts 52°
2026-04-22 06:35 45.45071 13.19134 32164 ft 448 kts 52°
2026-04-22 06:35 45.48213 13.26795 32161 ft 448 kts 52°
2026-04-22 06:36 45.51328 13.34428 32176 ft 447 kts 52°
2026-04-22 06:36 45.54448 13.42116 32160 ft 448 kts 52°
2026-04-22 06:37 45.57572 13.49801 32187 ft 448 kts 53°
2026-04-22 06:37 45.61015 13.57206 32657 ft 447 kts 48°
2026-04-22 06:37 45.62807 13.60838 33055 ft 448 kts 48°
2026-04-22 06:38 45.64595 13.64485 33157 ft 448 kts 49°
2026-04-22 06:38 45.68158 13.71792 33164 ft 447 kts 49°
2026-04-22 06:39 45.71719 13.79090 33166 ft 447 kts 49°
2026-04-22 06:39 45.75274 13.86376 33176 ft 444 kts 49°
2026-04-22 06:40 45.78810 13.93637 33162 ft 444 kts 49°
2026-04-22 06:40 45.82338 14.00917 33175 ft 445 kts 49°
2026-04-22 06:41 45.85843 14.08166 33178 ft 444 kts 49°
2026-04-22 06:41 45.89361 14.15461 33175 ft 444 kts 49°
2026-04-22 06:42 45.92871 14.22760 33184 ft 444 kts 50°
2026-04-22 06:42 45.96372 14.30072 33189 ft 444 kts 50°
2026-04-22 06:43 45.99866 14.37389 33194 ft 444 kts 50°
2026-04-22 06:43 46.02774 14.43474 33218 ft 444 kts 50°
2026-04-22 06:44 46.06270 14.50796 33241 ft 443 kts 50°
2026-04-22 06:44 46.09745 14.58121 33239 ft 443 kts 51°
2026-04-22 06:45 46.13213 14.65443 33229 ft 442 kts 51°
2026-04-22 06:45 46.16671 14.72775 33217 ft 442 kts 51°
2026-04-22 06:46 46.20124 14.80100 33204 ft 441 kts 51°
2026-04-22 06:46 46.23540 14.87352 33210 ft 439 kts 51°
2026-04-22 06:47 46.26930 14.94578 33218 ft 437 kts 51°
2026-04-22 06:47 46.30343 15.01883 33203 ft 439 kts 52°
2026-04-22 06:48 46.33754 15.09216 33212 ft 439 kts 52°
2026-04-22 06:48 46.37173 15.16560 33211 ft 440 kts 52°
2026-04-22 06:49 46.40572 15.23876 33215 ft 437 kts 52°
2026-04-22 06:49 46.43955 15.31177 33217 ft 436 kts 52°
2026-04-22 06:50 46.47316 15.38481 33210 ft 436 kts 52°
2026-04-22 06:50 46.50684 15.45807 33208 ft 435 kts 51°
2026-04-22 06:51 46.54801 15.51969 33232 ft 426 kts 33°
2026-04-22 06:51 46.59976 15.55973 32946 ft 421 kts 20°
2026-04-22 06:51 46.62675 15.57619 32686 ft 421 kts 20°
2026-04-22 06:52 46.65368 15.59257 32271 ft 417 kts 20°
2026-04-22 06:52 46.68037 15.60883 31716 ft 414 kts 20°
2026-04-22 06:52 46.70679 15.62492 31183 ft 410 kts 20°
2026-04-22 06:52 46.73301 15.64090 30661 ft 407 kts 21°
2026-04-22 06:53 46.75901 15.65684 30093 ft 404 kts 22°
2026-04-22 06:53 46.78480 15.67269 29552 ft 398 kts 22°
2026-04-22 06:53 46.81014 15.68828 29039 ft 392 kts 22°
2026-04-22 06:53 46.83511 15.70365 28541 ft 387 kts 22°
2026-04-22 06:54 46.85972 15.71883 28047 ft 382 kts 22°
2026-04-22 06:54 46.88404 15.73383 27576 ft 377 kts 22°
2026-04-22 06:54 46.90804 15.74866 27108 ft 372 kts 23°
2026-04-22 06:54 46.93176 15.76334 26652 ft 368 kts 23°
2026-04-22 06:55 46.95523 15.77788 26207 ft 365 kts 24°
2026-04-22 06:55 46.97850 15.79231 25779 ft 361 kts 24°
2026-04-22 06:55 47.00151 15.80658 25356 ft 358 kts 24°
2026-04-22 06:55 47.02433 15.82069 24940 ft 354 kts 24°
2026-04-22 06:56 47.04693 15.83465 24528 ft 351 kts 24°
2026-04-22 06:56 47.06929 15.84848 24121 ft 347 kts 24°
2026-04-22 06:56 47.09143 15.86221 23689 ft 344 kts 24°
2026-04-22 06:56 47.11304 15.87568 23233 ft 340 kts 24°
2026-04-22 06:57 47.13461 15.88915 22835 ft 335 kts 24°
2026-04-22 06:57 47.15589 15.90242 22435 ft 330 kts 24°
2026-04-22 06:57 47.17684 15.91546 22036 ft 325 kts 24°
2026-04-22 06:57 47.19757 15.92839 21632 ft 322 kts 24°
2026-04-22 06:58 47.21805 15.94119 21232 ft 318 kts 24°
2026-04-22 06:58 47.23835 15.95389 20829 ft 316 kts 24°
2026-04-22 06:58 47.25850 15.96650 20429 ft 313 kts 24°
2026-04-22 06:58 47.27850 15.97903 20027 ft 312 kts 24°
2026-04-22 06:59 47.29844 15.99151 19635 ft 310 kts 24°
2026-04-22 06:59 47.31823 16.00395 19227 ft 309 kts 24°
2026-04-22 06:59 47.33793 16.01639 18838 ft 307 kts 24°
2026-04-22 06:59 47.35759 16.02878 18432 ft 306 kts 24°
2026-04-22 07:00 47.37726 16.04075 18050 ft 308 kts 22°
2026-04-22 07:00 47.39799 16.05173 17823 ft 321 kts 20°
2026-04-22 07:00 47.41933 16.06217 17555 ft 324 kts 19°
2026-04-22 07:00 47.44078 16.07237 17285 ft 323 kts 19°
2026-04-22 07:01 47.46219 16.08255 17019 ft 323 kts 19°
2026-04-22 07:01 47.48348 16.09282 16746 ft 321 kts 19°
2026-04-22 07:01 47.50470 16.10320 16477 ft 320 kts 19°
2026-04-22 07:01 47.52578 16.11361 16211 ft 319 kts 20°
2026-04-22 07:02 47.54679 16.12404 15949 ft 317 kts 20°
2026-04-22 07:02 47.56766 16.13441 15686 ft 316 kts 20°
2026-04-22 07:02 47.58823 16.14465 15422 ft 315 kts 20°
2026-04-22 07:02 47.60898 16.15501 15167 ft 314 kts 20°
2026-04-22 07:03 47.62962 16.16533 14906 ft 313 kts 20°
2026-04-22 07:03 47.65018 16.17561 14647 ft 311 kts 20°
2026-04-22 07:03 47.67066 16.18583 14387 ft 310 kts 20°
2026-04-22 07:03 47.69114 16.19605 14131 ft 309 kts 20°
2026-04-22 07:04 47.71148 16.20623 13860 ft 308 kts 20°
2026-04-22 07:04 47.73170 16.21638 13597 ft 307 kts 20°
2026-04-22 07:04 47.75178 16.22698 13339 ft 305 kts 25°
2026-04-22 07:04 47.77001 16.24258 13094 ft 303 kts 37°
2026-04-22 07:05 47.78546 16.26376 12836 ft 302 kts 47°
2026-04-22 07:05 47.79971 16.28656 12590 ft 300 kts 47°
2026-04-22 07:05 47.81391 16.30921 12337 ft 299 kts 46°
2026-04-22 07:05 47.82812 16.33185 12087 ft 298 kts 46°
2026-04-22 07:06 47.84223 16.35438 11840 ft 297 kts 46°
2026-04-22 07:06 47.85631 16.37683 11594 ft 296 kts 46°
2026-04-22 07:06 47.87036 16.39933 11346 ft 295 kts 48°
2026-04-22 07:06 47.88201 16.42441 11091 ft 295 kts 61°
2026-04-22 07:07 47.88942 16.45292 10828 ft 296 kts 72°
2026-04-22 07:07 47.89472 16.48272 10541 ft 297 kts 77°
2026-04-22 07:07 47.89392 16.51256 10371 ft 292 kts 104°
2026-04-22 07:07 47.88392 16.53893 10164 ft 291 kts 131°
2026-04-22 07:08 47.86699 16.55529 9773 ft 296 kts 158°
2026-04-22 07:08 47.84748 16.56375 9409 ft 295 kts 162°
2026-04-22 07:08 47.82777 16.57179 9067 ft 293 kts 162°
2026-04-22 07:08 47.80809 16.57980 8759 ft 293 kts 162°
2026-04-22 07:09 47.78849 16.58780 8454 ft 290 kts 163°
2026-04-22 07:09 47.76908 16.59575 8085 ft 287 kts 162°
2026-04-22 07:09 47.74984 16.60369 7668 ft 287 kts 162°
2026-04-22 07:09 47.73067 16.61161 7253 ft 286 kts 162°
2026-04-22 07:10 47.71156 16.61955 6932 ft 284 kts 162°
2026-04-22 07:10 47.69298 16.62918 6670 ft 282 kts 147°
2026-04-22 07:10 47.67925 16.64891 6411 ft 273 kts 116°
2026-04-22 07:10 47.67386 16.67510 6139 ft 263 kts 88°
2026-04-22 07:11 47.67680 16.70136 5980 ft 258 kts 70°
2026-04-22 07:11 47.68310 16.72599 5971 ft 253 kts 53°
2026-04-22 07:11 47.69604 16.74291 5803 ft 249 kts 23°
2026-04-22 07:11 47.71286 16.74678 5537 ft 248 kts 353°
2026-04-22 07:12 47.72920 16.73856 5284 ft 250 kts 340°
2026-04-22 07:12 47.74570 16.73054 5029 ft 248 kts 346°
2026-04-22 07:12 47.76233 16.72411 4759 ft 245 kts 348°
2026-04-22 07:12 47.77873 16.71814 4496 ft 246 kts 348°
2026-04-22 07:13 47.79551 16.71193 4230 ft 245 kts 347°
2026-04-22 07:13 47.81203 16.70561 3966 ft 244 kts 347°
2026-04-22 07:13 47.82820 16.69924 3720 ft 243 kts 346°
2026-04-22 07:13 47.84452 16.69289 3473 ft 241 kts 348°
2026-04-22 07:14 47.86077 16.68694 3210 ft 240 kts 346°
2026-04-22 07:14 47.87660 16.68051 3025 ft 230 kts 345°
2026-04-22 07:14 47.89145 16.67428 2991 ft 212 kts 345°
2026-04-22 07:14 47.90530 16.66847 3002 ft 204 kts 345°
2026-04-22 07:15 47.91863 16.66288 2996 ft 193 kts 345°
2026-04-22 07:15 47.93104 16.65767 3011 ft 178 kts 346°
2026-04-22 07:15 47.94272 16.65277 3012 ft 172 kts 346°
2026-04-22 07:15 47.95418 16.64796 3007 ft 171 kts 346°
2026-04-22 07:16 47.96558 16.64317 3009 ft 170 kts 346°
2026-04-22 07:16 47.97700 16.63837 2906 ft 170 kts 346°
2026-04-22 07:16 47.98833 16.63361 2718 ft 168 kts 346°
2026-04-22 07:16 47.99931 16.62899 2501 ft 159 kts 345°
2026-04-22 07:17 48.00952 16.62469 2294 ft 146 kts 345°
2026-04-22 07:17 48.01893 16.62073 2105 ft 136 kts 345°
2026-04-22 07:17 48.02750 16.61713 1930 ft 131 kts 345°
2026-04-22 07:17 48.03692 16.61316 1741 ft 135 kts 345°
2026-04-22 07:18 48.04562 16.60949 1549 ft 127 kts 345°
2026-04-22 07:18 48.05402 16.60595 1367 ft 123 kts 343°
2026-04-22 07:18 48.06230 16.60246 1195 ft 124 kts 344°
2026-04-22 07:18 48.07057 16.59896 1017 ft 127 kts 343°
2026-04-22 07:19 48.07889 16.59546 844 ft 121 kts 342°
2026-04-22 07:19 48.08709 16.59199 681 ft 122 kts 342°
2026-04-22 07:19 48.09472 16.58885 614 ft 93 kts 346°
2026-04-22 07:19 48.09934 16.58682 617 ft 58 kts 343°
2026-04-22 07:20 48.10288 16.58530 613 ft 49 kts 345°
2026-04-22 07:20 48.10592 16.58404 617 ft 42 kts 344°
2026-04-22 07:20 48.10844 16.58297 619 ft 29 kts 343°
2026-04-22 07:20 48.10983 16.58190 617 ft 22 kts 317°
2026-04-22 07:21 48.11063 16.58005 618 ft 20 kts 296°
2026-04-22 07:21 48.11112 16.57853 610 ft 16 kts 295°
2026-04-22 07:21 48.11162 16.57700 620 ft 17 kts 296°
2026-04-22 07:21 48.11213 16.57541 610 ft 17 kts 296°
2026-04-22 07:22 48.11264 16.57390 621 ft 14 kts 296°
2026-04-22 07:22 48.11323 16.57340 614 ft 11 kts 13°
2026-04-22 07:22 48.11395 16.57386 616 ft 12 kts 13°
2026-04-22 07:22 48.11451 16.57312 618 ft 12 kts 295°
2026-04-22 07:23 48.11489 16.57195 615 ft 13 kts 296°
2026-04-22 07:23 48.11528 16.57086 615 ft 7 kts 315°
2026-04-22 07:23 48.11558 16.57096 610 ft 5 kts 26°
2026-04-22 07:23 48.11593 16.57122 610 ft 6 kts 26°
2026-04-22 07:24 48.11604 16.57131 610 ft 0 kts 26°
2026-04-22 07:25 48.11612 16.57136 610 ft 0 kts 26°